{"data":{"norad_id":67283,"epoch":"2026-09-20T22:06:26.371584Z","epoch_age_seconds":66655,"freshness":"FRESH","line1":"1 67283U 25313AM  26263.92113856  .00005218  00000+0  21139-3 0  9998","line2":"2 67283  97.3860 337.5099 0010493  29.7672 330.4161 15.25052349 40555","mean_motion":15.25052349,"eccentricity":0.0010493,"inclination_deg":97.386,"raan_deg":337.5099,"arg_perigee_deg":29.7672,"mean_anomaly_deg":330.4161,"bstar":0.00021139,"rev_number":4055,"period_min":94.422988230157,"perigee_km":483.42084890855,"apogee_km":497.83563965019,"semimajor_km":6868.7652442794,"source":"CELESTRAK","updated_at":"2026-09-21T09:00:16.547705Z"}}